Accueil
METAR-TAF:

METAR-TAF

Aéroports :

Goeree Le, Pays-Bas

Plate-forme pétrolière

latitude: 51-55-33N, longitude: 3-40-12E, altitude: 19 m

Observation

Le bulletin a été fait il y a 32 minutes, à 01:25 UTC
Vent 27 kt de ouest/sud-ouest avec des rafales jusqu'à 30 kt
Température 17°C
Humidité 88%
Pression 1014 hPa
Visibilité 10 km ou plus

METAR: EHSC 240125Z AUTO 25027G30KT 9999 ///////// 17/15 Q1014 W18/H17

Heure: 03:57 (01:57 UTC)


TAF: absent

Observations et prévisions météorologiques de plus de 4000 aéroports (messages METAR et TAF).

Les stations disponibles sont représentées par des disques jaunes et rouges sur la carte.

Passer la souris dessus pour voir le nom de la station.

Cliquer dessus pour voir les observations et prévisions météorologiques.

Pour changer de carte: cliquez sur les boutons verts avec une croix noire pour zoomer, sur le bouton vert avec un tiret pour effectuer un zoom arrière, ou sur les flèches vertes pour les cartes adjacentes.


METAR-TAF: